CZ-6A DEB, 61104

Orbit data source: Space-Track

CZ-6A DEB, 61104 is space debris in LEO originally from a launch on Tue, 06 Aug 2024 UTC launched from the Taiyaun Space Center, China (TSC). Debris objects in space refer to the collection of defunct objects orbiting the Earth. Examples of debris include non-operational satellites, rocket bodies, and fragments generated from explosions, collisions, or faulty payload assembly.

Loading next visibility...
Identifier
61104, 2024-140NW
Orbit
LEO
Country
Flag of CNCN / PRC
Related business
Manufacturer
SAST
Mission
Spacecraft
Bus & Motor
Unknown
Mass
Unknown
Launch date (UTC)
2024-08-06 (2 years ago)
Launch vehicle
Unknown
Launch site
Taiyaun Space Center, China (TSC)
Object type
Payload
Rocket body
Debris
Shape & HBR
Unknown shape, 0.2 m
Radar Cross Section
Medium (>0.1 m² and <1 m²)

Expand to show TLE details & history
Last TLE update: 15 hours ago

TLE from 15 hours ago
0 CZ-6A DEB
1 61104U 24140NW  26171.27520388  .00000267  00000-0  11712-3 0  9995
2 61104  89.0032 274.4795 0049114 144.0858 216.3651 14.20042210 93858
Epoch: 2026-06-20T06:36Z
TLE epoch observation values (Epoch: 2026-06-20T06:36:17.615Z)
Latitude
0.00005°
Longitude
-93.08606°
Altitude
856.819 km
Speed
7.409 km/s
True Right ascension
18h 17m 55s
True Declination
0° 00' 00"
Sunlit
Object was in full shadow at epoch
Visualization orbit readout
Latitude
Unknown
Longitude
Unknown
Altitude
Unknown
Speed
Unknown
Apparent Right ascension
Unknown
Apparent Declination
Unknown
Sunlit
N/A
Visualization observer readout
Local Sidereal Time
08:41:35
Azimuth
Unknown
Elevation
Unknown
Doppler factor
Unknown
Orbital elements
Apogee altitude
857.525 km
Perigee altitude
786.798 km
Semi-major axis
7,200.298 km
Eccentricity
0.00491
Inclination
89.0032°
RAAN
274.4795°
Arg. of periapsis
144.0858°
True anomaly
216.03304°
Mean anomaly
216.3651°
Eccentric anomaly
216.19891°
Mean motion
3.55236 °/min
Orbital period
101.34 mins
BSTAR
0.00011712
Loading maneuver chart data...
Computing Atmospheric mass density...

Documentation

Showing up to 5 results
|